Regional Weather Roundup
Issued by NWS

Home | Current Version | Previous Version | Graphics & Text | Print | Product List | Glossary On
Versions: 1 2 3 4 5 6 7 8 9 10 11 12 13 14 15 16 17 18 19 20 21 22 23 24 25 26 27 28 29 30 31 32 33 34 35 36 37 38 39 40 41 42 43 44 45 46 47 48 49 50
000
ASUS43 KBIS 260010
RWRND

NORTH DAKOTA REGIONAL WEATHER ROUNDUP
NATIONAL WEATHER SERVICE BISMARCK ND
700 PM CDT THU AUG 25 2016

NOTE: "FAIR" INDICATES FEW OR NO CLOUDS BELOW 12,000 FEET WITH NO
SIGNIFICANT WEATHER AND/OR OBSTRUCTIONS TO VISIBILITY.


NDZ001>003-009>011-017-260100-
NORTHWEST NORTH DAKOTA

CITY           SKY/WX    TMP DP  RH WIND       PRES   REMARKS
WILLISTON      CLOUDY    74  37  26 W10       30.08F
6HR MIN TEMP:  70; 6HR MAX TEMP:  78;

MINOT          MOSUNNY   74  37  26 W7        30.06F
MINOT AFB      SUNNY     73  35  24 NW8       30.05S
$$

NDZ018>021-031>035-040>046-260100-
SOUTHWEST NORTH DAKOTA

CITY           SKY/WX    TMP DP  RH WIND       PRES   REMARKS
BISMARCK       CLOUDY    68  45  43 W9        30.12F
6HR MIN TEMP:  63; 6HR MAX TEMP:  70;

DICKINSON      MOSUNNY   67  35  30 W7        30.13S
GARRISON         N/A     70  40  33 W6        30.09S
6HR MIN TEMP:  65; 6HR MAX TEMP:  74;

HETTINGER ARPT MOSUNNY   66  41  40 SW5       30.17F
$$

NDZ004>008-012>016-024-026-027-054-260100-
NORTHEAST NORTH DAKOTA

CITY           SKY/WX    TMP DP  RH WIND       PRES   REMARKS
GRAND FORKS    MOSUNNY   69  53  56 W7        30.04S
GRND FRKS AFB  SUNNY     66  52  59 SW7       30.05S
DEVILS LAKE    SUNNY     69  44  40 N8        30.07S
$$

NDZ022-023-025-028>030-036>039-047>053-260100-
SOUTHEAST NORTH DAKOTA

CITY           SKY/WX    TMP DP  RH WIND       PRES   REMARKS
FARGO          CLOUDY    67  51  56 NW7       30.07S
6HR MIN TEMP:  63; 6HR MAX TEMP:  71;

JAMESTOWN      CLOUDY    65  50  58 W8        30.09F
$$





USA.gov is the U.S. government's official web portal to all federal, state and local government web resources and services.